Theta_e
365 365 363 362 360 359 359 362 364 364 364 363 363 363 363 365 366 364 364 367 368 367 368 371 371 372 371 371 371 370 368 366 363 366 365 362 359 354 351 349 350 350
364 366 364 363 361 361 361 362 365 366 366 367 365 366 367 368 366 366 365 365 368 367 368 369 371 371 370 368 370 368 370 368 365 364 363 362 359 355 353 352 351 350
364 364 364 361 359 360 357 361 364 367 368 368 368 368 368 368 366 366 367 365 366 365 368 368 369 371 370 370 370 368 367 367 364 360 362 362 359 357 356 352 350 351
364 364 362 361 360 359 359 359 361 365 366 367 365 364 365 364 365 366 366 368 366 366 367 368 367 368 370 370 370 368 367 367 365 365 363 363 360 357 356 358 351 350
364 364 362 361 361 361 360 358 357 360 362 364 366 366 364 367 367 365 365 366 367 367 368 368 368 367 370 370 369 367 366 366 366 367 364 362 361 359 358 357 355 349
364 364 364 362 362 362 361 359 359 358 360 359 365 366 364 365 368 365 366 365 365 365 364 367 367 366 368 369 368 367 365 363 364 366 364 362 359 357 356 357 356 352
364 365 363 364 363 362 362 361 361 360 361 362 365 365 365 363 364 365 367 367 364 363 364 365 367 365 366 367 367 366 366 364 364 366 363 362 361 357 355 357 357 354
363 364 364 363 362 361 361 361 362 362 363 365 364 365 366 363 363 363 367 368 366 365 366 367 368 367 366 367 366 366 365 364 363 364 363 362 361 359 356 356 358 354
364 364 363 361 359 358 356 357 361 364 364 364 363 362 365 364 364 362 364 369 368 368 368 367 367 367 365 365 366 366 364 362 361 363 362 361 360 359 358 357 357 355
364 365 361 358 358 360 358 356 359 361 364 363 363 362 363 364 366 365 366 368 369 369 369 367 367 366 365 365 367 366 365 364 362 362 362 361 360 359 358 357 356 356
360 362 362 361 360 358 359 358 359 361 362 360 360 360 362 364 365 367 368 368 367 368 370 369 367 367 365 364 366 366 365 364 363 363 362 362 361 361 360 357 357 356
361 359 359 361 359 358 358 358 360 359 361 364 363 361 361 362 365 366 367 368 367 368 369 370 368 367 367 365 364 364 364 364 363 363 363 362 362 362 361 359 358 357
360 359 359 360 361 360 358 360 359 358 359 363 362 361 361 360 364 366 367 369 369 368 368 369 369 367 367 367 365 363 364 364 362 363 362 362 362 362 361 360 359 359
361 361 360 361 362 361 361 360 358 359 360 363 366 364 362 361 362 366 366 367 369 369 369 369 369 368 368 368 367 365 364 364 363 362 361 362 362 362 361 360 360 359
362 363 362 362 363 363 362 361 360 361 361 362 366 366 364 364 362 364 366 366 368 369 368 368 368 367 367 367 367 366 365 363 363 362 361 361 361 361 362 362 361 360
365 365 364 363 363 363 362 362 361 361 360 361 364 367 366 365 363 361 364 366 366 368 369 368 367 367 355 342 348 365 364 362 363 363 362 361 361 361 362 363 362 361
367 366 366 364 363 364 364 363 362 362 362 362 363 365 366 366 365 362 359 363 365 366 367 368 367 365 341 335 338 343 360 362 361 362 362 361 361 361 361 362 362 362
367 367 367 366 365 364 365 364 363 363 363 363 362 363 366 367 365 365 363 361 365 366 366 368 368 347 336 334 335 336 344 362 361 361 362 361 362 361 362 361 362 362
369 368 368 368 367 365 366 367 365 363 363 363 361 363 365 366 366 365 364 363 364 366 366 368 369 344 333 331 333 334 336 349 361 360 360 361 361 361 361 361 361 361
370 369 368 369 370 368 367 367 366 364 363 363 363 364 365 365 365 365 365 364 363 366 367 367 367 345 330 329 330 331 333 341 362 361 359 359 361 361 360 360 361 360
371 369 369 370 371 370 368 367 367 366 365 364 363 363 363 364 365 365 365 365 364 364 366 367 366 341 328 326 327 328 330 334 360 362 361 360 362 363 362 360 361 362
371 370 370 370 371 371 368 367 367 367 366 366 364 362 363 364 366 365 365 365 366 365 364 364 366 337 326 324 324 326 328 343 358 361 360 361 361 362 363 363 362 362
371 370 370 371 372 371 369 367 367 368 369 368 365 363 363 363 362 363 365 365 366 365 364 363 364 344 324 322 322 323 328 348 357 360 360 360 361 362 362 363 363 363
371 371 371 371 372 371 369 368 369 370 369 368 365 362 360 361 362 362 363 364 364 365 364 363 364 348 321 319 319 320 330 351 356 358 359 359 359 361 363 363 362 350
371 372 372 371 371 372 372 370 369 369 370 370 366 364 362 364 364 363 363 364 363 365 349 359 363 351 320 318 317 318 329 353 357 358 358 359 358 359 362 363 363 352
370 372 373 372 371 372 373 372 371 369 370 369 367 364 363 362 363 363 364 363 364 365 365 363 364 365 344 315 316 316 320 351 359 358 357 358 359 359 358 360 362 364
Wind_Speed
13 11 12 11 10 9 9 9 9 10 9 8 8 9 9 8 9 9 10 9 10 10 8 7 8 7 7 6 6 5 5 6 6 6 6 6 5 6 6 7 5 5
15 14 11 11 10 9 9 9 9 9 9 9 8 8 8 7 9 9 10 10 11 10 9 8 8 8 7 6 7 6 5 6 6 6 7 7 6 6 7 7 7 5
15 14 14 15 13 13 14 11 10 10 9 10 9 8 9 9 9 9 8 10 10 11 10 9 8 9 8 7 7 7 6 6 7 8 7 8 7 6 6 8 6 7
17 16 16 16 14 14 13 11 10 9 9 9 10 9 8 9 9 10 9 9 9 10 10 10 9 9 9 8 8 7 7 7 7 6 6 6 7 7 6 5 7 7
19 17 15 15 14 13 12 12 13 12 12 10 10 10 8 7 9 10 10 9 8 10 9 10 10 9 9 9 8 8 8 7 7 7 7 7 6 7 6 7 6 7
17 16 15 15 14 13 13 14 13 13 13 13 11 10 10 9 8 10 10 11 10 10 11 11 11 10 10 10 9 8 8 8 8 8 8 8 8 7 7 7 7 7
18 17 17 15 15 15 14 13 12 12 11 12 10 10 10 11 10 9 10 11 11 10 11 10 10 10 10 9 9 9 9 8 8 9 9 8 7 9 9 7 8 8
19 17 17 15 17 15 15 14 13 12 12 11 12 12 11 12 12 11 9 11 12 11 11 11 11 11 11 10 11 11 11 9 9 10 10 9 8 8 9 8 8 9
17 17 16 17 18 16 18 17 15 14 13 12 13 12 11 11 11 12 11 11 11 11 11 11 11 12 11 11 12 12 12 11 11 11 12 12 11 10 10 9 9 9
17 16 20 20 20 17 19 19 17 15 14 14 13 12 12 11 11 12 11 11 12 12 12 12 12 12 12 12 12 13 12 12 11 11 12 13 12 11 11 10 11 9
20 19 19 20 20 17 20 19 18 16 14 15 15 15 13 12 12 11 12 12 12 13 13 13 12 12 13 13 12 12 13 13 12 11 12 12 13 12 11 11 11 11
20 20 21 21 20 19 20 19 18 16 16 15 16 16 14 13 13 12 12 13 13 13 13 13 12 12 13 14 14 13 13 12 12 11 12 12 12 12 12 12 11 12
20 19 17 18 18 17 16 16 17 18 18 17 16 16 15 14 13 14 12 13 14 13 14 13 13 13 12 13 13 13 13 13 13 12 12 11 12 13 13 13 13 12
19 17 17 16 16 15 15 15 15 15 15 14 13 15 15 15 14 15 13 13 14 14 13 13 13 13 13 13 14 13 12 13 13 12 13 12 12 13 13 13 13 14
15 15 15 15 15 15 15 15 14 14 13 13 13 13 13 13 14 13 14 14 14 14 14 13 14 14 13 13 14 15 13 13 14 14 13 13 13 13 13 13 13 14
14 13 14 15 15 15 15 15 14 13 13 13 13 14 13 13 12 12 14 15 15 15 14 14 13 12 15 21 18 15 14 12 12 13 13 13 13 13 13 14 14 15
14 14 14 15 15 14 14 14 14 13 13 13 13 13 13 13 13 14 15 14 15 15 16 14 14 13 19 20 22 22 17 14 13 13 13 13 13 13 13 14 14 14
14 14 14 15 14 15 15 15 14 14 14 14 14 14 13 12 14 15 14 13 13 16 16 15 14 16 20 21 22 23 20 15 14 13 13 14 14 14 13 13 13 14
14 14 15 14 15 15 14 13 14 15 14 14 16 14 13 13 15 15 15 14 14 15 17 16 15 18 20 22 23 23 24 20 14 15 14 15 15 15 14 13 13 13
15 15 14 14 13 13 13 14 15 16 16 14 13 12 13 15 15 16 15 15 15 14 15 15 16 16 20 22 24 25 25 21 15 16 15 15 16 16 15 15 15 14
14 14 14 13 12 13 13 14 15 15 15 13 13 14 15 14 15 15 15 15 16 15 13 14 16 18 20 23 24 25 25 22 17 15 13 14 15 16 16 16 15 14
14 14 13 13 13 13 14 14 14 14 14 13 12 12 12 12 11 12 14 15 15 15 15 16 16 19 20 23 24 24 25 15 15 16 15 14 14 15 15 15 15 14
14 14 13 14 13 13 15 15 14 13 12 10 12 12 12 12 13 14 13 14 15 15 17 16 15 16 18 21 23 24 18 10 17 16 16 15 14 14 14 14 14 15
13 13 13 14 14 15 15 14 12 11 11 11 13 13 14 15 13 12 12 13 15 16 17 15 14 14 17 19 22 22 21 11 16 16 16 16 15 13 11 12 15 20
12 13 14 14 14 13 12 13 13 12 10 10 12 12 13 10 10 11 12 12 15 15 17 17 15 14 16 19 22 22 20 13 17 15 16 16 14 13 12 11 13 15
11 12 12 13 13 12 11 11 10 10 12 13 12 12 11 12 11 11 13 13 13 13 13 13 15 15 12 19 20 22 24 17 14 15 17 17 14 13 12 12 13 12
Wind_Direction
190 188 193 197 197 196 197 194 192 197 199 199 196 195 200 190 187 189 194 182 186 193 200 192 184 187 186 185 183 186 190 179 184 177 187 188 187 195 183 205 201 225
191 189 191 194 197 195 199 199 196 196 196 201 199 192 195 192 189 192 188 187 182 190 193 194 184 186 188 187 182 187 191 178 187 177 190 189 192 198 193 194 213 211
191 192 191 194 196 196 199 199 199 197 197 199 201 196 187 193 192 194 189 186 183 188 190 194 189 185 188 188 181 186 191 187 190 198 180 197 190 191 206 192 207 214
192 193 193 195 196 195 197 198 199 200 199 196 201 204 196 192 192 190 195 189 183 185 188 192 193 188 187 188 184 188 193 194 192 198 188 192 193 192 195 206 195 212
191 193 194 195 195 194 195 199 201 199 203 202 196 200 204 198 184 191 190 193 187 185 185 189 191 190 184 188 187 188 193 193 195 197 195 195 194 196 195 194 204 207
191 192 192 193 193 191 193 198 200 200 200 203 199 194 201 201 194 190 188 192 192 192 192 190 191 192 185 187 190 190 192 196 194 195 200 201 196 197 206 190 202 210
188 189 191 192 192 193 195 196 198 200 198 202 196 199 195 199 202 196 188 190 195 197 198 193 190 192 188 185 190 191 194 197 194 188 199 207 201 196 201 201 195 207
190 189 189 190 193 194 196 196 197 198 199 195 200 199 195 198 199 199 194 189 193 194 198 193 189 190 188 185 190 191 195 195 197 185 193 205 208 203 196 207 195 197
187 189 188 191 195 196 199 199 198 198 197 198 200 201 196 199 194 197 196 193 193 193 195 198 191 191 192 190 190 193 195 198 197 191 191 200 205 207 202 199 200 196
188 188 190 191 195 195 198 198 200 200 195 200 201 204 198 198 196 194 194 194 195 194 194 198 195 191 193 195 190 193 196 199 197 196 193 198 204 205 205 201 203 200
191 190 191 192 194 197 198 199 200 199 197 199 202 204 203 193 197 194 193 194 197 198 197 197 198 193 193 197 195 196 198 200 200 199 199 196 200 204 205 205 205 206
191 193 193 193 195 197 199 199 200 199 197 195 200 202 202 197 192 195 193 195 198 199 200 198 197 196 194 197 200 199 198 201 202 202 201 201 199 203 205 206 208 207
193 193 192 194 193 198 197 198 200 201 200 198 197 203 202 201 193 195 195 196 198 199 201 200 198 199 197 197 201 202 198 200 203 203 203 202 206 206 206 205 206 207
195 191 191 194 194 194 196 198 199 200 201 196 193 198 203 203 198 193 196 197 198 200 201 200 199 200 199 199 200 202 199 199 202 203 204 205 205 208 210 209 206 208
191 191 192 193 193 192 196 197 197 198 199 198 192 194 200 203 206 197 195 199 201 200 201 201 202 202 201 199 199 202 203 201 201 203 204 206 206 208 209 210 208 209
189 191 191 192 193 194 196 196 197 196 199 200 197 194 195 201 205 206 198 199 201 202 202 204 206 206 201 196 195 199 202 204 201 204 205 206 206 208 211 211 211 211
187 191 190 192 195 195 193 194 196 196 199 200 200 198 196 195 199 205 209 203 203 204 204 207 207 209 197 193 195 195 196 201 202 203 205 208 209 208 210 210 212 212
188 188 189 192 193 196 194 193 195 197 198 200 200 202 199 194 197 204 207 207 202 206 209 209 211 206 193 193 193 194 195 199 203 204 204 209 210 210 210 211 212 213
184 188 192 192 193 194 194 191 194 199 201 200 202 201 197 198 201 201 205 208 207 204 211 212 215 203 193 192 194 195 197 198 204 204 206 209 210 211 211 210 211 212
184 187 192 194 192 192 192 194 195 200 202 201 200 196 201 204 201 203 204 207 211 209 209 214 217 205 193 192 193 195 197 199 209 207 209 209 209 209 212 212 210 211
183 186 190 191 191 193 195 197 198 200 200 198 198 199 202 204 203 204 205 207 211 213 214 214 219 205 191 193 194 194 198 199 210 212 214 213 210 209 211 213 213 211
181 185 188 190 192 193 197 201 202 199 198 196 200 204 207 206 207 209 208 210 211 214 218 222 221 206 194 192 193 195 195 198 209 214 218 217 215 213 211 212 213 212
181 182 185 189 191 193 198 201 201 199 199 195 202 205 204 206 209 211 211 210 211 214 218 224 226 211 195 193 193 193 189 198 207 214 220 223 222 216 215 213 212 212
177 180 184 187 191 197 201 202 198 197 200 194 203 206 211 213 212 216 217 217 215 217 217 223 228 214 192 194 194 189 190 192 205 212 221 224 228 224 219 219 216 212
178 181 186 191 196 198 196 194 195 195 196 195 204 207 215 215 213 216 218 218 221 222 219 222 228 221 194 191 192 191 194 202 203 210 220 225 226 229 228 225 224 217
183 183 186 192 196 195 196 195 191 193 197 199 205 210 214 218 219 217 217 220 221 223 223 218 223 227 196 191 189 194 194 200 206 209 221 223 221 226 228 231 230 226